Weather Roundup
Issued by NWS Chicago, IL

Home | Current Version | Previous Version | Text Only | Print | Product List | Glossary On
Versions: 1 2 3 4 5 6 7 8 9 10 11 12 13 14 15 16 17 18 19 20 21 22 23 24 25 26 27 28 29 30 31 32 33 34 35 36 37 38 39 40 41 42 43 44 45 46 47 48 49 50
000
NZUS59 KLOT 260912
HRRLOT

CHICAGO AREA WEATHER ROUNDUP
NATIONAL WEATHER SERVICE CHICAGO/ROMEOVILLE IL
300 AM CST SUN FEB 26 2017

NOTE: "FAIR" INDICATES FEW OR NO CLOUDS BELOW 12,000 FEET WITH NO
SIGNIFICANT WEATHER AND/OR OBSTRUCTIONS TO VISIBILITY.

* THESE STATIONS ARE NOT UNDER NWS QUALITY CONTROL. THEY ALSO MAY NOT
  REPORT WEATHER SUCH AS PRECIPITATION OR FOG.

ILZ005-006-012>014-019>023-261000-
NORTHEAST ILLINOIS

CITY           SKY/WX    TMP DP  RH WIND       PRES   REMARKS
OHARE          CLOUDY    24  17  74 S6        30.03F WCI  17
MIDWAY         CLOUDY    24  16  71 S6        30.05F WCI  17
AURORA         CLOUDY    25  19  78 S6        30.04F WCI  18
LANSING*       PTCLDY    19  17  93 S6        30.08S WCI  10
JOLIET*        CLOUDY    25  21  84 CALM      30.06F
WAUKEGAN       CLOUDY    22  17  81 SW8       30.01S WCI  12
DUPAGE AIRPORT CLOUDY    23  17  78 S6        30.02F WCI  16
WHEELING       CLOUDY    23  16  74 S6        30.04F WCI  16
KANKAKEE*      CLOUDY    23  19  84 CALM      30.09S
MORRIS*        CLOUDY    24  20  86 CALM      30.04F
LEWIS AIRPORT* CLOUDY    24  23  96 SW6       30.05F WCI  17
NORTHERLY ISL    N/A     25  17  72 S5          N/A  WCI  19
$$

WIZ051-052-058>065-066-070>072-261000-
SOUTHEAST WISCONSIN

CITY           SKY/WX    TMP DP  RH WIND       PRES   REMARKS
MILWAUKEE      MOCLDY    23  14  68 SW6       29.99S WCI  16
KENOSHA*       CLOUDY    23  16  74 SW8       30.00S WCI  14
RACINE*        CLOUDY    22  15  75 SW8       30.01F WCI  12
WAUKESHA       CLOUDY    19  14  79 SW5       29.98S WCI  13
WEST BEND      CLOUDY    21  16  79 SW3       29.95S
$$

INZ001>003-010>013-019-020-261000-
NORTHWEST INDIANA

CITY           SKY/WX    TMP DP  RH WIND       PRES   REMARKS
GARY*          CLEAR     24  17  75 S3        30.08S
MICHIGAN CITY* NOT AVBL
RENSSELAER*    NOT AVBL
VALPARAISO     CLEAR     21  16  81 SW7       30.07S WCI  12
$$

LMZ740>746-261000-
SOUTHERN LAKE MICHIGAN

STATION/POSITION TIME  SKY/WX   TEMP WIND        PRES    VSBY
                                AIR  DIR/SP/G
                 (UTC)          (F)  (DEG/KT/KT) (MB)    (MI)
HARRISON CRIB    0840            27  240/  7/ 10   N/A
BURNHAM HARBOR   0900            25   CALM  /  7   N/A
CALUMET HARBOR   0848            25  210/  5/  7 1017.4R
BURNS HARBOR     0840            24  180/  6/  9 1018.6S
MICHIGAN CITY    0840            24  180/ 10/ 10   N/A
$$

ABBREVIATIONS USED IN REMARKS
   TC - TEMPERATURE IN CELSIUS
  WCI - WIND CHILL INDEX
   HX - HEAT INDEX
  VSB - VISIBILITY
$$



USA.gov is the U.S. government's official web portal to all federal, state and local government web resources and services.